Weather History for Sivas, Turkey

Change the Weather History Date:

Thursday, October 17, 2013

  Actual Average Record
Temperature  
Mean Temperature 55 °F -  
Max Temperature 72 °F 57 °F - ()
Min Temperature 38 °F 35 °F - ()
Degree Days  
Heating Degree Days 10    
Growing Degree Days 5 (Base 50)    
Moisture  
Dew Point 23 °F    
Average Humidity 28    
Maximum Humidity 60    
Minimum Humidity 11    
Precipitation  
Precipitation 0.00 in 0.05 in - ()
Sea Level Pressure  
Sea Level Pressure 29.96 in    
Wind  
Wind Speed 12 mph ()    
Max Wind Speed 23 mph    
Max Gust Speed -    
Visibility 6.6 miles    
Events      
T = Trace of Precipitation, MM = Missing Value Source: Averaged Metar Reports

Daily Weather History Graph

Daily Weather History Graph

Search for Another Location

Airport:

Trip Planner

Search our weather history database for the weather conditions in past years. The results will help you decide how hot, cold, wet, or windy it might be!

Date:

Astronomy

Oct. 17, 2013 Rise Set
Actual Time 6:44 AM EEST 5:50 PM EEST
Civil Twilight 6:17 AM EEST 6:17 PM EEST
Nautical Twilight 5:46 AM EEST 6:48 PM EEST
Astronomical Twilight 5:14 AM EEST 7:20 PM EEST
Moon 4:52 PM EEST (10/17) 4:54 AM EEST (10/17)
Length of Visible Light 12h 00m
Length of Day
11h 05m
Waxing Gibbous, 97% of the Moon is Illuminated
Oct 17
Waxing Gibbous
Oct 19
Full
Oct 27
Last Quarter
Nov 3
New
Nov 10
First Quarter

Hourly Weather History & Observations

Time (EEST) Temp. Windchill Dew Point Humidity Pressure Visibility Wind Dir Wind Speed Gust Speed Precip Events Conditions
3:50 AM 35.6 °F - 23.0 °F 60% 30.01 in - Variable 2.3 mph - N/A   Clear
4:50 AM 41.0 °F 34.3 °F 19.4 °F 42% 30.01 in - SE 11.5 mph - N/A   Clear
5:50 AM 42.8 °F 36.2 °F 19.4 °F 39% 29.98 in - SSE 12.7 mph - N/A   Clear
6:50 AM 37.4 °F 31.4 °F 19.4 °F 48% 29.98 in - SE 8.1 mph - N/A   Clear
7:50 AM 48.2 °F - 21.2 °F 34% 30.01 in 6.2 mi ESE 11.5 mph - N/A   Scattered Clouds
8:50 AM 53.6 °F - 21.2 °F 28% 30.01 in 6.2 mi SSE 16.1 mph - N/A   Mostly Cloudy
9:00 AM 55 °F - 29 °F 24%  in 9 mi SE 2.3 mph - -   Clear
9:50 AM 55.4 °F - 21.2 °F 26% 30.01 in 6.2 mi SSE 18.4 mph - N/A   Mostly Cloudy
10:50 AM 59.0 °F - 21.2 °F 23% 29.98 in 6.2 mi SSE 17.3 mph - N/A   Mostly Cloudy
11:50 AM 62.6 °F - 15.8 °F 16% 29.95 in 6.2 mi SSW 23.0 mph - N/A   Mostly Cloudy
12:50 PM 64.4 °F - 19.4 °F 18% 29.95 in 6.2 mi South 21.9 mph - N/A   Mostly Cloudy
1:50 PM 64.4 °F - 21.2 °F 19% 29.95 in 6.2 mi South 23.0 mph - N/A   Mostly Cloudy
2:50 PM 66.2 °F - 23.0 °F 19% 29.92 in 6.2 mi South 20.7 mph - N/A   Mostly Cloudy
3:00 PM 71 °F - 28 °F 11%  in 9 mi SSW 9.2 mph - -   Partly Cloudy
3:50 PM 64.4 °F - 23.0 °F 21% 29.92 in 6.2 mi SSW 18.4 mph - N/A   Mostly Cloudy
4:50 PM 62.6 °F - 24.8 °F 24% 29.92 in 6.2 mi South 20.7 mph - N/A   Mostly Cloudy
5:50 PM 60.8 °F - 23.0 °F 23% 29.92 in 6.2 mi South 19.6 mph - N/A   Mostly Cloudy
6:50 PM 57.2 °F - 23.0 °F 27% 29.95 in 6.2 mi South 17.3 mph - N/A   Mostly Cloudy
7:50 PM 55.4 °F - 24.8 °F 31% 29.95 in 6.2 mi SSE 15.0 mph - N/A   Mostly Cloudy
8:50 PM 55.4 °F - 24.8 °F 31% 29.95 in 6.2 mi South 15.0 mph - N/A   Mostly Cloudy
9:00 PM 59 °F - 28 °F 19%  in 9 mi East 2.3 mph - -   Partly Cloudy
9:50 PM 53.6 °F - 24.8 °F 33% 29.95 in 6.2 mi SSE 13.8 mph - N/A   Mostly Cloudy
10:50 PM 55.4 °F - 24.8 °F 31% 29.95 in 6.2 mi SSE 19.6 mph - N/A   Mostly Cloudy
11:50 PM 55.4 °F - 24.8 °F 31% 29.92 in 6.2 mi SSE 19.6 mph - N/A   Mostly Cloudy